Weather History for Kirksville, MO

Change the Weather History Date:

Tuesday, November 1, 2011

  Actual Average Record
Temperature  
Mean Temperature 57 °F 47 °F  
Max Temperature 77 °F 58 °F 82 °F (1937)
Min Temperature 37 °F 37 °F 19 °F (2002)
Degree Days  
Heating Degree Days 8 18  
Month to date heating degree days 8 18  
Since 1 July heating degree days 482 507  
Cooling Degree Days 0 0  
Month to date cooling degree days 0 0  
Year to date cooling degree days 1197 939  
Growing Degree Days 6 (Base 50)    
Moisture  
Dew Point 39 °F    
Average Humidity 58    
Maximum Humidity 82    
Minimum Humidity 33    
Precipitation  
Precipitation 0.00 in 0.12 in 2.07 in (1984)
Month to date precipitation 0.00 0.12  
Year to date precipitation 29.43 34.96  
Sea Level Pressure  
Sea Level Pressure 30.00 in    
Wind  
Wind Speed 11 mph (South)    
Max Wind Speed 24 mph    
Max Gust Speed 33 mph    
Visibility 10 miles    
Events      
T = Trace of Precipitation, MM = Missing Value Source: NWS Daily Summary

Daily Weather History Graph

Daily Weather History Graph

Search for Another Location

Airport:

Trip Planner

Search our weather history database for the weather conditions in past years. The results will help you decide how hot, cold, wet, or windy it might be!

Date:

Astronomy

Nov. 01, 2011 Rise Set
Actual Time 7:39 AM CDT 6:07 PM CDT
Civil Twilight 7:10 AM CDT 6:35 PM CDT
Nautical Twilight 6:38 AM CDT 7:07 PM CDT
Astronomical Twilight 6:07 AM CDT 7:39 PM CDT
Moon 1:26 PM CDT (11/1) 11:50 PM CDT (11/1)
Length of Visible Light 11h 24m
Length of Day
10h 28m
Waxing Crescent, 40% of the Moon is Illuminated
Nov 1
Waxing Crescent
Nov 2
First Quarter
Nov 10
Full
Nov 18
Last Quarter
Nov 25
New

Hourly Weather History & Observations

Time (CDT) Temp. Windchill Dew Point Humidity Pressure Visibility Wind Dir Wind Speed Gust Speed Precip Events Conditions
12:55 AM 41.0 °F 36.4 °F 28.0 °F 60% 30.07 in 10.0 mi SE 6.9 mph - N/A   Clear
1:55 AM 39.0 °F 33.4 °F 28.9 °F 67% 30.06 in 10.0 mi SSE 8.1 mph - N/A   Clear
2:55 AM 37.0 °F 31.0 °F 28.9 °F 73% 30.05 in 10.0 mi SSE 8.1 mph - N/A   Clear
3:55 AM 37.0 °F 31.6 °F 28.9 °F 73% 30.04 in 10.0 mi South 6.9 mph - N/A   Clear
4:55 AM 39.0 °F 34.0 °F 30.0 °F 70% 30.04 in 10.0 mi South 6.9 mph - N/A   Clear
5:55 AM 39.9 °F 35.8 °F 32.0 °F 73% 30.04 in 10.0 mi South 5.8 mph - N/A   Clear
6:55 AM 37.0 °F 31.6 °F 32.0 °F 82% 30.04 in 10.0 mi SSE 6.9 mph - N/A   Clear
7:55 AM 37.4 °F 32.8 °F 32.0 °F 81% 30.03 in 10.0 mi South 5.8 mph - N/A   Clear
8:55 AM 51.1 °F - 39.0 °F 63% 30.07 in 10.0 mi South 9.2 mph - N/A   Clear
9:55 AM 57.9 °F - 39.9 °F 51% 30.06 in 10.0 mi SSW 10.4 mph 18.4 mph N/A   Clear
10:55 AM 63.0 °F - 41.0 °F 45% 30.04 in 10.0 mi SSW 17.3 mph 24.2 mph N/A   Clear
11:55 AM 66.9 °F - 42.1 °F 40% 30.02 in 10.0 mi South 16.1 mph 23.0 mph N/A   Clear
12:55 PM 73.0 °F - 43.0 °F 34% 29.99 in 10.0 mi SSW 12.7 mph 23.0 mph N/A   Clear
1:55 PM 75.0 °F - 44.1 °F 33% 29.95 in 10.0 mi South 17.3 mph 26.5 mph N/A   Clear
2:55 PM 75.9 °F - 45.0 °F 33% 29.94 in 10.0 mi SSW 21.9 mph 27.6 mph N/A   Clear
3:55 PM 75.9 °F - 46.0 °F 35% 29.93 in 10.0 mi SSW 17.3 mph 24.2 mph N/A   Clear
4:55 PM 73.9 °F - 46.0 °F 37% 29.92 in 10.0 mi South 13.8 mph 21.9 mph N/A   Clear
5:55 PM 71.6 °F - 46.4 °F 41% 29.92 in 10.0 mi South 10.4 mph - N/A   Clear
6:55 PM 66.0 °F - 45.0 °F 47% 29.95 in 10.0 mi South 9.2 mph - N/A   Clear
7:55 PM 64.9 °F - 45.0 °F 48% 29.97 in 10.0 mi South 8.1 mph - N/A   Clear
8:55 PM 66.0 °F - 44.1 °F 45% 29.97 in 10.0 mi South 10.4 mph - N/A   Overcast
9:55 PM 66.0 °F - 42.1 °F 42% 29.98 in 10.0 mi South 11.5 mph 19.6 mph N/A   Overcast
10:55 PM 64.4 °F - 41.0 °F 42% 29.98 in 10.0 mi South 11.5 mph - N/A   Mostly Cloudy
11:55 PM 62.1 °F - 39.9 °F 44% 29.98 in 10.0 mi South 10.4 mph 19.6 mph N/A   Partly Cloudy